K9APR Weather Reports


Display with metric or nautical units.
time (UTC)temp
F
wind
direction
speed
MPH
gust
MPH
rain 1hr
in
rain 24hr
in
rain mn
in
humidity
%
barometer
mb
20260903065837 76 173 0.0 0.0 0.00 0.00 0.00 85 1015.8
20260903065027 77 173 0.0 0.0 0.00 0.00 0.00 85 1015.9
20260903064937 77 173 0.0 0.0 0.00 0.00 0.00 85 1015.9
20260903064037 77 163 0.0 0.0 0.00 0.00 0.00 84 1016.0
20260903063142 77 168 0.0 0.0 0.00 0.00 0.00 84 1016.1
20260903061337 76 192 0.0 0.0 0.00 0.00 0.00 85 1016.5
20260903060438 76 207 0.0 0.0 0.00 0.00 0.00 85 1016.9
20260903055612 73 0 0.0 0.0 0.00 0.00 0.00 88 1017.3
20260903055537 73 0 0.0 0.0 0.00 0.00 0.00 88 1017.3
20260903054725 73 0 0.0 0.0 0.00 0.00 0.00 88 1017.1
20260903054638 73 0 0.0 0.0 0.00 0.00 0.00 88 1017.1
20260903053740 73 0 0.0 0.0 0.00 0.00 0.00 88 1017.2
20260903052009 73 0 0.0 0.0 0.00 0.00 0.00 88 1017.1
20260903051937 73 0 0.0 0.0 0.00 0.00 0.00 88 1017.1
20260903051037 73 0 0.0 0.0 0.00 0.00 0.00 88 1017.0
20260903050210 73 0 0.0 0.0 0.00 0.00 0.00 88 1017.0
20260903050138 73 0 0.0 0.0 0.00 0.00 0.00 88 1017.0
20260903045311 73 0 0.0 0.0 0.00 0.00 0.00 88 1017.0
20260903045238 73 0 0.0 0.0 0.00 0.00 0.00 88 1017.0
20260903044426 73 0 0.0 0.0 0.00 0.00 0.00 88 1016.8
20260903044338 73 0 0.0 0.0 0.00 0.00 0.00 88 1016.8
20260903043439 73 0 0.0 0.0 0.00 0.00 0.00 88 1016.7
20260903042623 73 0 0.0 0.0 0.00 0.00 0.00 88 1016.6
20260903042541 73 0 0.0 0.0 0.00 0.00 0.00 88 1016.6
20260903041713 73 0 0.0 0.0 0.00 0.00 0.00 88 1016.5
20260903041639 73 0 0.0 0.0 0.00 0.00 0.00 88 1016.5
20260903040811 73 0 0.0 0.0 0.00 0.00 0.00 88 1016.7
20260903040740 73 0 0.0 0.0 0.00 0.00 0.00 88 1016.7
20260903035837 73 0 0.0 0.0 0.00 0.00 0.00 88 1016.7
20260903034938 73 0 0.0 0.0 0.00 0.00 0.00 88 1016.7
20260903034130 73 0 0.0 0.0 0.00 0.00 0.00 88 1016.9
20260903034036 73 0 0.0 0.0 0.00 0.00 0.00 88 1016.9
20260903033248 73 0 0.0 0.0 0.00 0.00 0.00 88 1016.8
20260903033137 73 0 0.0 0.0 0.00 0.00 0.00 88 1016.8
20260903031338 73 0 0.0 0.0 0.00 0.00 0.00 88 1016.9
20260903030437 73 0 0.0 0.0 0.00 0.00 0.00 88 1017.1
20260903025610 73 0 0.0 0.0 0.00 0.00 0.00 88 1017.0
20260903025538 73 0 0.0 0.0 0.00 0.00 0.00 88 1017.0
20260903024719 73 0 0.0 0.0 0.00 0.00 0.00 88 1017.2
20260903024638 73 0 0.0 0.0 0.00 0.00 0.00 88 1017.2
20260903023738 73 0 0.0 0.0 0.00 0.00 0.00 88 1017.3
20260903022838 73 0 0.0 0.0 0.00 0.00 0.00 88 1017.2
20260903022731 73 0 0.0 0.0 0.00 0.00 0.00 88 1017.1
20260903021829 73 0 0.0 0.0 0.00 0.00 0.00 88 1017.2
20260903020930 73 0 0.0 0.0 0.00 0.00 0.00 88 1017.3
20260903020031 73 0 0.0 0.0 0.00 0.00 0.00 88 1017.2
20260903015133 73 0 0.0 0.0 0.00 0.00 0.00 88 1017.3
20260903014231 73 0 0.0 0.0 0.00 0.00 0.00 88 1017.3
20260903013331 73 0 0.0 0.0 0.00 0.00 0.00 88 1017.1
20260903012431 73 0 0.0 0.0 0.00 0.00 0.00 88 1017.0
20260903011530 73 0 0.0 0.0 0.00 0.00 0.00 88 1016.9
20260903010632 73 0 0.0 0.0 0.00 0.00 0.00 88 1016.9
20260903005730 73 0 0.0 0.0 0.00 0.00 0.00 88 1016.7
20260903004830 73 0 0.0 0.0 0.00 0.00 0.00 88 1016.6
20260903003930 73 0 0.0 0.0 0.00 0.00 0.00 88 1016.6
20260903003245 73 0 0.0 0.0 0.00 0.00 0.00 88 1016.6
20260903003030 73 0 0.0 0.0 0.00 0.00 0.00 88 1016.6
20260903002130 73 0 0.0 0.0 0.00 0.00 0.00 88 1016.5
20260903001231 73 0 0.0 0.0 0.00 0.00 0.00 88 1016.6
20260903000332 73 0 0.0 0.0 0.00 0.00 0.00 88 1016.6
20260902235431 73 0 0.0 0.0 0.00 0.00 0.00 88 1016.5
20260902231830 73 0 0.0 0.0 0.00 0.00 0.00 88 1016.5
20260902230931 73 0 0.0 0.0 0.00 0.00 0.00 88 1016.5
20260902230030 73 0 0.0 0.0 0.00 0.00 0.00 88 1016.5
20260902225130 73 0 0.0 0.0 0.00 0.00 0.00 88 1016.6
20260902224230 73 0 0.0 0.0 0.00 0.00 0.00 88 1016.6
20260902223331 73 0 0.0 0.0 0.00 0.00 0.00 88 1016.6
20260902222429 73 0 0.0 0.0 0.00 0.00 0.00 88 1016.7
20260902221530 73 0 0.0 0.0 0.00 0.00 0.00 88 1016.6
20260902220632 73 0 0.0 0.0 0.00 0.00 0.00 88 1016.8
20260902215730 73 0 0.0 0.0 0.00 0.00 0.00 88 1016.7
20260902214831 73 0 0.0 0.0 0.00 0.00 0.00 88 1016.7
20260902213931 73 0 0.0 0.0 0.00 0.00 0.00 88 1016.8
20260902213031 73 0 0.0 0.0 0.00 0.00 0.00 88 1016.7
20260902212130 73 0 0.0 0.0 0.00 0.00 0.00 88 1016.8
20260902211233 73 0 0.0 0.0 0.00 0.00 0.00 88 1016.9
20260902210330 73 0 0.0 0.0 0.00 0.00 0.00 88 1016.8
20260902205429 73 0 0.0 0.0 0.00 0.00 0.00 88 1016.8
20260902204530 73 0 0.0 0.0 0.00 0.00 0.00 88 1016.9
20260902203630 73 0 0.0 0.0 0.00 0.00 0.00 88 1017.0
20260902202730 73 0 0.0 0.0 0.00 0.00 0.00 88 1017.0
20260902201831 73 0 0.0 0.0 0.00 0.00 0.00 88 1017.3
20260902200930 73 0 0.0 0.0 0.00 0.00 0.00 88 1017.3
20260902200030 73 0 0.0 0.0 0.00 0.00 0.00 88 1017.4
20260902195129 73 0 0.0 0.0 0.00 0.00 0.00 88 1017.6
20260902194229 73 0 0.0 0.0 0.00 0.00 0.00 88 1017.6
20260902193330 73 0 0.0 0.0 0.00 0.00 0.00 88 1017.8
20260902192430 73 0 0.0 0.0 0.00 0.00 0.00 88 1017.7
20260902191529 73 0 0.0 0.0 0.00 0.00 0.00 88 1017.7
20260902190630 73 0 0.0 0.0 0.00 0.00 0.00 88 1017.8
20260902185815 73 0 0.0 0.0 0.00 0.00 0.00 88 1017.8
20260902185731 73 0 0.0 0.0 0.00 0.00 0.00 88 1017.8
20260902184829 73 0 0.0 0.0 0.00 0.00 0.00 88 1017.8
20260902183929 73 0 0.0 0.0 0.00 0.00 0.00 88 1017.9
20260902183029 73 0 0.0 0.0 0.00 0.00 0.00 88 1018.2
20260902182129 73 0 0.0 0.0 0.00 0.00 0.00 88 1018.2
20260902181230 73 0 0.0 0.0 0.00 0.00 0.00 88 1018.4
20260902180330 73 0 0.0 0.0 0.00 0.00 0.00 88 1018.4
20260902175429 73 0 0.0 0.0 0.00 0.00 0.00 88 1018.5
20260902174529 73 0 0.0 0.0 0.00 0.00 0.00 88 1018.6
20260902173629 73 0 0.0 0.0 0.00 0.00 0.00 88 1018.6
20260902172730 73 0 0.0 0.0 0.00 0.00 0.00 88 1018.7
20260902171829 73 0 0.0 0.0 0.00 0.00 0.00 88 1018.8
20260902170930 73 0 0.0 0.0 0.00 0.00 0.00 88 1018.8
20260902170030 73 0 0.0 0.0 0.00 0.00 0.00 88 1018.8
20260902165130 73 0 0.0 0.0 0.00 0.00 0.00 88 1018.9
20260902164230 73 0 0.0 0.0 0.00 0.00 0.00 88 1018.9
20260902163329 73 0 0.0 0.0 0.00 0.00 0.00 88 1019.0
20260902162431 73 0 0.0 0.0 0.00 0.00 0.00 88 1019.0
20260902161531 73 0 0.0 0.0 0.00 0.00 0.00 88 1019.0
20260902160629 73 0 0.0 0.0 0.00 0.00 0.00 88 1019.1
20260902154829 73 0 0.0 0.0 0.00 0.00 0.00 88 1019.1
20260902153930 73 0 0.0 0.0 0.00 0.00 0.00 88 1019.2
20260902153029 73 0 0.0 0.0 0.00 0.00 0.00 88 1019.1
20260902152130 73 0 0.0 0.0 0.00 0.00 0.00 88 1019.0
20260902151229 73 0 0.0 0.0 0.00 0.00 0.00 88 1019.0
20260902150329 73 0 0.0 0.0 0.00 0.00 0.00 88 1018.9
20260902145430 73 0 0.0 0.0 0.00 0.00 0.00 88 1019.1
20260902144531 73 0 0.0 0.0 0.00 0.00 0.00 88 1019.1
20260902143629 73 0 0.0 0.0 0.00 0.00 0.00 88 1019.1
20260902142730 73 0 0.0 0.0 0.00 0.00 0.00 88 1019.1
20260902141833 73 0 0.0 0.0 0.00 0.00 0.00 88 1019.2
20260902140930 73 0 0.0 0.0 0.00 0.00 0.00 88 1019.2
20260902140030 73 0 0.0 0.0 0.00 0.00 0.00 88 1019.2
20260902135130 73 0 0.0 0.0 0.00 0.00 0.00 88 1019.1
20260902134302 73 0 0.0 0.0 0.00 0.00 0.00 88 1019.2
20260902134230 73 0 0.0 0.0 0.00 0.00 0.00 88 1019.2
20260902133329 73 0 0.0 0.0 0.00 0.00 0.00 88 1019.3
20260902132429 73 0 0.0 0.0 0.00 0.00 0.00 88 1019.2
20260902131530 73 0 0.0 0.0 0.00 0.00 0.00 88 1019.2
20260902130701 73 0 0.0 0.0 0.00 0.00 0.00 88 1019.1
20260902130630 73 0 0.0 0.0 0.00 0.00 0.00 88 1019.1
20260902125833 73 0 0.0 0.0 0.00 0.00 0.00 88 1019.0
20260902125801 73 0 0.0 0.0 0.00 0.00 0.00 88 1019.0
20260902125729 73 0 0.0 0.0 0.00 0.00 0.00 88 1019.0
20260902125442 73 0 0.0 0.0 0.00 0.00 0.00 88 1019.1
20260902124900 73 0 0.0 0.0 0.00 0.00 0.00 88 1019.1
20260902124829 73 0 0.0 0.0 0.00 0.00 0.00 88 1019.1
20260902124424 73 0 0.0 0.0 0.00 0.00 0.00 88 1019.0
20260902124110 73 0 0.0 0.0 0.00 0.00 0.00 88 1019.0
20260902124039 73 0 0.0 0.0 0.00 0.00 0.00 88 1019.0
20260902124004 73 0 0.0 0.0 0.00 0.00 0.00 88 1019.0
20260902123930 73 0 0.0 0.0 0.00 0.00 0.00 88 1019.0
20260902123100 73 0 0.0 0.0 0.00 0.00 0.00 88 1018.9
20260902123028 73 0 0.0 0.0 0.00 0.00 0.00 88 1018.9
20260902122207 73 0 0.0 0.0 0.00 0.00 0.00 88 1018.8
20260902122130 73 0 0.0 0.0 0.00 0.00 0.00 88 1018.8
20260902121229 73 0 0.0 0.0 0.00 0.00 0.00 88 1018.5
20260902120330 73 0 0.0 0.0 0.00 0.00 0.00 88 1018.4
20260902115429 73 0 0.0 0.0 0.00 0.00 0.00 88 1018.1
20260902114530 73 0 0.0 0.0 0.00 0.00 0.00 88 1018.0
20260902113634 73 0 0.0 0.0 0.00 0.00 0.00 88 1017.9
20260902112827 73 0 0.0 0.0 0.00 0.00 0.00 88 1017.7
20260902112730 73 0 0.0 0.0 0.00 0.00 0.00 88 1017.7
20260902112212 73 0 0.0 0.0 0.00 0.00 0.00 88 1017.6
20260902111934 73 0 0.0 0.0 0.00 0.00 0.00 88 1017.6
20260902111901 73 0 0.0 0.0 0.00 0.00 0.00 88 1017.6
20260902111830 73 0 0.0 0.0 0.00 0.00 0.00 88 1017.6
20260902111038 73 0 0.0 0.0 0.00 0.00 0.00 88 1017.5
20260902111003 73 0 0.0 0.0 0.00 0.00 0.00 88 1017.5
20260902110929 73 0 0.0 0.0 0.00 0.00 0.00 88 1017.5
20260902110256 73 0 0.0 0.0 0.00 0.00 0.00 88 1017.4
20260902110225 73 0 0.0 0.0 0.00 0.00 0.00 88 1017.4
20260902110153 73 0 0.0 0.0 0.00 0.00 0.00 88 1017.4
20260902110059 73 0 0.0 0.0 0.00 0.00 0.00 88 1017.4
20260902110028 73 0 0.0 0.0 0.00 0.00 0.00 88 1017.4
20260902105129 73 0 0.0 0.0 0.00 0.00 0.00 88 1017.6
20260902104402 73 0 0.0 0.0 0.00 0.00 0.00 88 1017.5
20260902104303 73 0 0.0 0.0 0.00 0.00 0.00 88 1017.5
20260902104231 73 0 0.0 0.0 0.00 0.00 0.00 88 1017.5
20260902103515 73 0 0.0 0.0 0.00 0.00 0.00 88 1017.4
20260902103435 73 0 0.0 0.0 0.00 0.00 0.00 88 1017.4
20260902103401 73 0 0.0 0.0 0.00 0.00 0.00 88 1017.4
20260902103328 73 0 0.0 0.0 0.00 0.00 0.00 88 1017.4
20260902102508 73 0 0.0 0.0 0.00 0.00 0.00 88 1017.2
20260902102436 73 0 0.0 0.0 0.00 0.00 0.00 88 1017.2
20260902101601 73 0 0.0 0.0 0.00 0.00 0.00 88 1017.3
20260902101529 73 0 0.0 0.0 0.00 0.00 0.00 88 1017.3
20260902100859 73 0 0.0 0.0 0.00 0.00 0.00 88 1017.2
20260902100827 73 0 0.0 0.0 0.00 0.00 0.00 88 1017.2
20260902100756 73 0 0.0 0.0 0.00 0.00 0.00 88 1017.2
20260902100712 73 0 0.0 0.0 0.00 0.00 0.00 88 1017.2
20260902100630 73 0 0.0 0.0 0.00 0.00 0.00 88 1017.2
20260902095952 73 0 0.0 0.0 0.00 0.00 0.00 88 1017.2
20260902095812 73 0 0.0 0.0 0.00 0.00 0.00 88 1017.2
20260902095729 73 0 0.0 0.0 0.00 0.00 0.00 88 1017.2
20260902095423 73 0 0.0 0.0 0.00 0.00 0.00 88 1017.4
20260902094910 73 0 0.0 0.0 0.00 0.00 0.00 88 1017.4
20260902094830 73 0 0.0 0.0 0.00 0.00 0.00 88 1017.4
20260902093141 73 0 0.0 0.0 0.00 0.00 0.00 88 1017.2
20260902093103 73 0 0.0 0.0 0.00 0.00 0.00 88 1017.2
20260902093031 73 0 0.0 0.0 0.00 0.00 0.00 88 1017.2
20260902092215 73 0 0.0 0.0 0.00 0.00 0.00 88 1017.2
20260902092137 73 0 0.0 0.0 0.00 0.00 0.00 88 1017.2
20260902091433 73 0 0.0 0.0 0.00 0.00 0.00 88 1017.1
20260902091300 73 0 0.0 0.0 0.00 0.00 0.00 88 1017.1
20260902091229 73 0 0.0 0.0 0.00 0.00 0.00 88 1017.1
20260902090333 73 0 0.0 0.0 0.00 0.00 0.00 88 1017.1
20260902085645 73 0 0.0 0.0 0.00 0.00 0.00 88 1016.9
20260902085502 73 0 0.0 0.0 0.00 0.00 0.00 88 1016.9
20260902085429 73 0 0.0 0.0 0.00 0.00 0.00 88 1016.9
20260902083935 73 0 0.0 0.0 0.00 0.00 0.00 88 1016.8
20260902083843 73 0 0.0 0.0 0.00 0.00 0.00 88 1016.8
20260902083719 73 0 0.0 0.0 0.00 0.00 0.00 88 1016.8
20260902083629 73 0 0.0 0.0 0.00 0.00 0.00 88 1016.8
20260902082917 73 0 0.0 0.0 0.00 0.00 0.00 88 1016.7
20260902082806 73 0 0.0 0.0 0.00 0.00 0.00 88 1016.7
20260902082730 73 0 0.0 0.0 0.00 0.00 0.00 88 1016.7
20260902082040 73 0 0.0 0.0 0.00 0.00 0.00 88 1016.8
20260902081934 73 0 0.0 0.0 0.00 0.00 0.00 88 1016.8
20260902081832 73 0 0.0 0.0 0.00 0.00 0.00 88 1016.8
20260902080931 73 0 0.0 0.0 0.00 0.00 0.00 88 1016.6
20260902080406 73 0 0.0 0.0 0.00 0.00 0.00 88 1016.6
20260902080304 73 0 0.0 0.0 0.00 0.00 0.00 88 1016.6
20260902080230 73 0 0.0 0.0 0.00 0.00 0.00 88 1016.6
20260902080143 73 0 0.0 0.0 0.00 0.00 0.00 88 1016.6
20260902080051 73 0 0.0 0.0 0.00 0.00 0.00 88 1016.6
20260902080030 73 0 0.0 0.0 0.00 0.00 0.00 88 1016.6
20260902075814 73 0 0.0 0.0 0.00 0.00 0.00 88 1016.6
20260902075626 73 0 0.0 0.0 0.00 0.00 0.00 88 1016.6
20260902075549 73 0 0.0 0.0 0.00 0.00 0.00 88 1016.6
20260902075216 73 0 0.0 0.0 0.00 0.00 0.00 88 1016.6
20260902075129 73 0 0.0 0.0 0.00 0.00 0.00 88 1016.6
20260902074356 73 0 0.0 0.0 0.00 0.00 0.00 88 1016.6
20260902074303 73 0 0.0 0.0 0.00 0.00 0.00 88 1016.6
20260902074230 73 0 0.0 0.0 0.00 0.00 0.00 88 1016.6
20260902073407 73 0 0.0 0.0 0.00 0.00 0.00 88 1016.6
20260902073336 73 0 0.0 0.0 0.00 0.00 0.00 88 1016.6
20260902072433 73 0 0.0 0.0 0.00 0.00 0.00 88 1016.6
20260902071531 73 0 0.0 0.0 0.00 0.00 0.00 88 1016.5
20260902070629 73 0 0.0 0.0 0.00 0.00 0.00 88 1016.5
20260902065925 73 0 0.0 0.0 0.00 0.00 0.00 88 1016.6
20260902065854 73 0 0.0 0.0 0.00 0.00 0.00 88 1016.6